TimeEST,TemperatureF,Dew PointF,Humidity,Sea Level PressureIn,VisibilityMPH,Wind Direction,Wind SpeedMPH,Gust SpeedMPH,PrecipitationIn,Events,Conditions,WindDirDegrees,DateUTC
12:53 AM,34.0,28.0,79,30.32,8.0,WNW,3.5,-,N/A,,Clear,290,2012-11-16 05:53:00
1:53 AM,34.0,28.9,82,30.32,8.0,WNW,3.5,-,N/A,,Clear,290,2012-11-16 06:53:00
2:53 AM,34.0,28.9,82,30.32,7.0,Calm,Calm,-,N/A,,Clear,0,2012-11-16 07:53:00
3:53 AM,34.0,28.9,82,30.31,7.0,Calm,Calm,-,N/A,,Clear,0,2012-11-16 08:53:00
4:53 AM,33.1,30.0,89,30.32,7.0,Calm,Calm,-,N/A,,Clear,0,2012-11-16 09:53:00
5:53 AM,33.1,28.9,85,30.32,7.0,WSW,3.5,-,N/A,,Clear,250,2012-11-16 10:53:00
6:53 AM,34.0,28.9,82,30.33,7.0,West,4.6,-,N/A,,Clear,270,2012-11-16 11:53:00
7:53 AM,34.0,30.0,85,30.35,5.0,West,4.6,-,N/A,,Clear,270,2012-11-16 12:53:00
8:53 AM,37.9,28.9,70,30.37,8.0,NNW,5.8,-,N/A,,Clear,330,2012-11-16 13:53:00
9:53 AM,42.1,28.9,60,30.36,10.0,NNE,6.9,-,N/A,,Clear,20,2012-11-16 14:53:00
10:53 AM,44.1,28.9,55,30.37,10.0,North,9.2,-,N/A,,Clear,360,2012-11-16 15:53:00
11:53 AM,46.0,28.9,51,30.35,10.0,North,6.9,-,N/A,,Clear,350,2012-11-16 16:53:00
12:53 PM,48.0,28.9,48,30.33,10.0,NNW,4.6,-,N/A,,Clear,330,2012-11-16 17:53:00
1:53 PM,48.9,28.0,44,30.33,10.0,NNE,6.9,-,N/A,,Clear,20,2012-11-16 18:53:00
2:53 PM,48.9,27.0,43,30.33,10.0,North,8.1,-,N/A,,Clear,350,2012-11-16 19:53:00
3:53 PM,48.0,27.0,44,30.35,10.0,North,9.2,-,N/A,,Clear,350,2012-11-16 20:53:00
4:53 PM,45.0,28.0,52,30.37,10.0,NNW,5.8,-,N/A,,Clear,340,2012-11-16 21:53:00
5:53 PM,43.0,27.0,53,30.39,10.0,NNW,5.8,-,N/A,,Clear,330,2012-11-16 22:53:00
6:53 PM,39.9,27.0,60,30.40,10.0,NW,5.8,-,N/A,,Clear,320,2012-11-16 23:53:00
7:53 PM,39.0,26.1,60,30.42,10.0,NNW,4.6,-,N/A,,Clear,340,2012-11-17 00:53:00
8:53 PM,36.0,26.1,67,30.43,10.0,West,3.5,-,N/A,,Clear,280,2012-11-17 01:53:00
9:53 PM,37.9,25.0,60,30.45,10.0,Calm,Calm,-,N/A,,Clear,0,2012-11-17 02:53:00
10:53 PM,33.1,25.0,72,30.45,10.0,NNW,3.5,-,N/A,,Clear,330,2012-11-17 03:53:00
11:53 PM,33.1,25.0,72,30.47,10.0,NNW,4.6,-,N/A,,Clear,340,2012-11-17 04:53:00